Time_in_sec,Mx,My,Mz
1314271595.04848957,-0.48628026,-0.03301184,-0.85641736
1314271595.09714532,-0.48546350,-0.03352380,-0.85636711
1314271595.14846182,-0.48557538,-0.03237315,-0.85810435
1314271595.19730401,-0.48505130,-0.03212501,-0.85834134
1314271595.24946904,-0.48601928,-0.03376588,-0.85666192
1314271595.29804182,-0.48630223,-0.03526616,-0.85706437
1314271595.34858084,-0.48675409,-0.03349619,-0.85763317
1314271595.40169883,-0.48685580,-0.03274825,-0.85698205
1314271595.44950867,-0.48803765,-0.03234066,-0.85864228
1314271595.50152063,-0.48636058,-0.03387480,-0.85787296
1314271595.54995394,-0.48726526,-0.03337038,-0.85713327
1314271595.60049176,-0.48791987,-0.03424527,-0.85689908
1314271595.64947820,-0.48563689,-0.03361612,-0.85929108
1314271595.70191979,-0.48632193,-0.03375671,-0.85720921
1314271595.74994230,-0.48776758,-0.03437552,-0.85662448
1314271595.80058265,-0.48774970,-0.03362610,-0.85623151
1314271595.84851074,-0.48782679,-0.03501591,-0.85543066
1314271595.90151262,-0.48619127,-0.03212619,-0.85708135
1314271595.94981170,-0.48743537,-0.03298578,-0.85767573
1314271596.00149369,-0.48599085,-0.03424886,-0.85851163
1314271596.04961371,-0.48587090,-0.03339348,-0.85639125
1314271596.09776592,-0.48692414,-0.03210782,-0.85805064
1314271596.14846373,-0.48487416,-0.03138169,-0.85754180
1314271596.20160985,-0.48652938,-0.03276196,-0.85603595
1314271596.25020146,-0.48745528,-0.03448765,-0.85819572
1314271596.30049920,-0.48639187,-0.03201106,-0.85590118
1314271596.34848714,-0.48523119,-0.03364499,-0.85701543
1314271596.40058279,-0.48546466,-0.03224450,-0.85849649
1314271596.44845676,-0.48610964,-0.03322235,-0.86038083
1314271596.49766660,-0.48496622,-0.03389790,-0.85713094
1314271596.54899287,-0.48613888,-0.03376736,-0.85640371
1314271596.60164738,-0.48604414,-0.03147826,-0.85906512
1314271596.64861488,-0.48677793,-0.03449542,-0.85815710
1314271596.70159960,-0.48680547,-0.03285948,-0.85864538
1314271596.74849200,-0.48511302,-0.03326732,-0.85748583
1314271596.80047917,-0.48724145,-0.03325005,-0.85694456
1314271596.84851551,-0.48624676,-0.03500245,-0.85859770
1314271596.89761186,-0.48519021,-0.03149552,-0.85856348
1314271596.94961166,-0.48562193,-0.03248972,-0.85890108
1314271597.00159264,-0.48620126,-0.03287712,-0.85734129
1314271597.05273533,-0.48526493,-0.03439138,-0.85767424
1314271597.10051847,-0.48390719,-0.03378011,-0.85746902
1314271597.14946556,-0.48680156,-0.03248332,-0.85830587
1314271597.20044899,-0.48563755,-0.03263656,-0.85691351
1314271597.24849367,-0.48681071,-0.03220627,-0.86069328
1314271597.30056906,-0.48563966,-0.03439278,-0.85716563
1314271597.34846377,-0.48777458,-0.03550344,-0.85688150
1314271597.40047145,-0.48450050,-0.03225839,-0.85817647
1314271597.44856501,-0.48604804,-0.03413680,-0.85719079
1314271597.49825668,-0.48617664,-0.03501488,-0.85719162
1314271597.54848433,-0.48631281,-0.03087257,-0.85670006
1314271597.59824395,-0.48549128,-0.03402038,-0.85689497
1314271597.64885902,-0.48757583,-0.03335970,-0.85781348
1314271597.69744515,-0.48527673,-0.03288345,-0.85768610
1314271597.74920201,-0.48558420,-0.03124220,-0.85811323
1314271597.80051231,-0.48534870,-0.03189024,-0.85650516
1314271597.84983826,-0.48803461,-0.03487506,-0.85663599
1314271597.89760590,-0.48488104,-0.03050206,-0.85754871
1314271597.94849277,-0.48507482,-0.03227033,-0.85648674
1314271597.99711728,-0.48574832,-0.03376899,-0.85664648
1314271598.04850173,-0.48420784,-0.02985730,-0.85976750
1314271598.09808898,-0.48695368,-0.03350672,-0.85645205
1314271598.15042019,-0.48699725,-0.03299650,-0.85712075
1314271598.20049763,-0.48660767,-0.03287247,-0.85736448
1314271598.24756336,-0.48722863,-0.03400475,-0.85659653
1314271598.28961039,-0.48599443,-0.03289232,-0.85613704
1314271598.34846735,-0.48549408,-0.03163585,-0.85664779
1314271598.40048552,-0.48470789,-0.03025987,-0.85687822
1314271598.44954014,-0.48244235,-0.03168365,-0.85528123
1314271598.48998976,-0.48815924,-0.03311955,-0.85646772
1314271598.54851770,-0.48554009,-0.02961913,-0.85740465
1314271598.60047626,-0.48657662,-0.03061982,-0.85679364
1314271598.64838624,-0.48536313,-0.03188768,-0.85698020
1314271598.70058823,-0.48440969,-0.03252701,-0.85692120
1314271598.74856162,-0.48625156,-0.03364469,-0.85601360
1314271598.78847671,-0.48603970,-0.03228065,-0.85455424
1314271598.84851217,-0.48556909,-0.03126944,-0.85559487
1314271598.90044284,-0.48422024,-0.03053100,-0.85552353
1314271598.94850492,-0.48469809,-0.03151648,-0.85686833
1314271599.00060129,-0.48524895,-0.03238686,-0.85715824
1314271599.04849315,-0.48732749,-0.03463756,-0.85606748
1314271599.10047960,-0.48664907,-0.03376721,-0.85590285
1314271599.14954114,-0.48675701,-0.03311921,-0.85763615
1314271599.20046926,-0.48396450,-0.03151064,-0.85815150
1314271599.24960613,-0.48631302,-0.03388389,-0.85707521
1314271599.29765558,-0.48645946,-0.03134642,-0.85922223
1314271599.34948182,-0.48585024,-0.03186740,-0.85812378
1314271599.40058875,-0.48522320,-0.03264273,-0.85675740
1314271599.44848442,-0.48593220,-0.03162513,-0.85720277
1314271599.50060058,-0.48751962,-0.03334609,-0.85913527
1314271599.54848909,-0.48576206,-0.03200973,-0.85666031
1314271599.60045266,-0.48526201,-0.03476836,-0.85767132
1314271599.64860892,-0.48510584,-0.02907887,-0.86114931
1314271599.70064211,-0.48534104,-0.03174189,-0.85862565
1314271599.74848461,-0.48518652,-0.03227333,-0.85609561
1314271599.78959918,-0.48612827,-0.03399599,-0.85852128
1314271599.85077643,-0.48564842,-0.03225806,-0.85704947
1314271599.89753556,-0.48555756,-0.03262750,-0.85783648
1314271599.94950008,-0.48515606,-0.03200385,-0.85781825
1314271600.00148034,-0.48642382,-0.03185513,-0.85868645
1314271600.04955411,-0.48562595,-0.03299085,-0.85903013
1314271600.09837699,-0.48671380,-0.03448333,-0.85934597
1314271600.14950466,-0.48502067,-0.02984799,-0.85981387
1314271600.19748783,-0.48538539,-0.03225965,-0.85716695
1314271600.25019360,-0.48625091,-0.03462426,-0.85839111
1314271600.30139732,-0.48615304,-0.03386578,-0.85892117
1314271600.34949183,-0.48439574,-0.03237955,-0.85869962
1314271600.40046930,-0.48675025,-0.03184142,-0.85963261
1314271600.44960880,-0.48729926,-0.03080571,-0.86192387
1314271600.49824047,-0.48549131,-0.03085919,-0.85877323
1314271600.54849005,-0.48677000,-0.03449693,-0.85802418
1314271600.59737802,-0.48481894,-0.03124242,-0.85886461
1314271600.65272164,-0.48578820,-0.03361154,-0.85956472
1314271600.70115805,-0.48511380,-0.03324232,-0.85952902
1314271600.74847913,-0.48630723,-0.03248044,-0.85907269
1314271600.80048156,-0.48624408,-0.03234269,-0.86026251
1314271600.84895754,-0.48578224,-0.03336173,-0.85943371
1314271600.89763522,-0.48502705,-0.03195547,-0.86244845
1314271600.94848013,-0.48544905,-0.03209765,-0.86048406
1314271601.00149465,-0.48523334,-0.03224002,-0.85914582
1314271601.05012155,-0.48616716,-0.03396420,-0.86143857
1314271601.10161257,-0.48595744,-0.03119518,-0.86210954
1314271601.14952683,-0.48554310,-0.03120136,-0.86195344
1314271601.20152879,-0.48582411,-0.03295296,-0.86235392
1314271601.24964571,-0.48521596,-0.03119086,-0.86325979
1314271601.30044317,-0.48637882,-0.03231693,-0.86252272
1314271601.34961152,-0.48717365,-0.03371561,-0.86017281
1314271601.40160966,-0.48402023,-0.03135015,-0.86133564
1314271601.44848084,-0.48560646,-0.03018546,-0.86289197
1314271601.50046849,-0.48401043,-0.03260677,-0.86132580
1314271601.54948783,-0.48422784,-0.03236295,-0.86041254
1314271601.60146928,-0.48586333,-0.03108771,-0.86051512
1314271601.64947319,-0.48515460,-0.03195543,-0.86232322
1314271601.70182991,-0.48436356,-0.03221152,-0.86267376
1314271601.74851704,-0.48375630,-0.03248118,-0.86157721
1314271601.80230713,-0.48678237,-0.03369303,-0.86266798
1314271601.84845591,-0.48504066,-0.03235363,-0.86045891
1314271601.90163898,-0.48390168,-0.03222679,-0.86171991
1314271601.94947553,-0.48489767,-0.03421437,-0.86282182
1314271602.00048780,-0.48469955,-0.03109107,-0.86137629
1314271602.04850078,-0.48490754,-0.02979657,-0.86470997
1314271602.09768987,-0.48537806,-0.03296519,-0.86166602
1314271602.14858651,-0.48310062,-0.03072817,-0.86168540
1314271602.20160460,-0.48462856,-0.03195861,-0.86255819
1314271602.24850440,-0.48528209,-0.03511659,-0.86031967
1314271602.30160809,-0.48626092,-0.03221400,-0.86052942
1314271602.34849453,-0.48582482,-0.03297717,-0.86010146
1314271602.40044546,-0.48451400,-0.03333637,-0.86307144
1314271602.44866419,-0.48502612,-0.03308490,-0.86257249
1314271602.50046015,-0.48361996,-0.03045098,-0.86357188
1314271602.54962850,-0.48376915,-0.03185136,-0.86171514
1314271602.60147190,-0.48717889,-0.03394121,-0.86255622
1314271602.64848065,-0.48535731,-0.03043534,-0.86327344
1314271602.70158052,-0.48541558,-0.03120139,-0.86207867
1314271602.74948525,-0.48581716,-0.03282881,-0.86222196
1314271602.79754281,-0.48476803,-0.03245819,-0.86269492
1314271602.84961891,-0.48404837,-0.02953945,-0.86612034
1314271602.89845753,-0.48313633,-0.03122324,-0.86234617
1314271602.94950318,-0.48541072,-0.03283347,-0.86219877
1314271603.00051284,-0.48565719,-0.03281070,-0.86406785
1314271603.04850364,-0.48514372,-0.03233393,-0.86218727
1314271603.10159993,-0.48614725,-0.03246233,-0.86091858
1314271603.14947462,-0.48529032,-0.03180401,-0.86458439
1314271603.20150208,-0.48519945,-0.03217345,-0.86537141
1314271603.24846578,-0.48460084,-0.03246580,-0.86215538
1314271603.30044889,-0.48682487,-0.03230469,-0.86321068
1314271603.34848976,-0.48503098,-0.03145282,-0.86245239
1314271603.40045547,-0.48407573,-0.03133955,-0.86226636
1314271603.45082235,-0.48439816,-0.03082471,-0.86308348
1314271603.50164843,-0.48580018,-0.03094996,-0.86170495
1314271603.54947281,-0.48574501,-0.03181447,-0.86315280
1314271603.60049510,-0.48538092,-0.03158444,-0.86154389
1314271603.64961314,-0.48410451,-0.02854928,-0.86467350
1314271603.69749928,-0.48593777,-0.03242967,-0.86443007
1314271603.74961209,-0.48632830,-0.03458599,-0.86218351
1314271603.79760456,-0.48559147,-0.03294919,-0.86321378
1314271603.84849143,-0.48630473,-0.03343661,-0.86391342
1314271603.89719009,-0.48519185,-0.03207401,-0.86319751
1314271603.94850874,-0.48503301,-0.03220528,-0.86257941
1314271603.99752021,-0.48531187,-0.03220066,-0.86272782
1314271604.04855990,-0.48503315,-0.03421282,-0.86282957
1314271604.09813881,-0.48473755,-0.03218872,-0.86441761
1314271604.14852095,-0.48512617,-0.03243841,-0.86417288
1314271604.20160794,-0.48486018,-0.03281698,-0.86428744
1314271604.24847364,-0.48610094,-0.03508276,-0.86296195
1314271604.29759049,-0.48704639,-0.03344093,-0.86276293
1314271604.34949923,-0.48535788,-0.03334601,-0.86160731
1314271604.40048194,-0.48562518,-0.03269174,-0.86374772
1314271604.44965744,-0.48480427,-0.02954062,-0.86544704
1314271604.50049043,-0.48617902,-0.03346004,-0.86157542
1314271604.54954243,-0.48457715,-0.03347412,-0.86188161
1314271604.60165858,-0.48506865,-0.03169657,-0.86311519
1314271604.65109134,-0.48527232,-0.03321201,-0.86218810
1314271604.70063043,-0.48582116,-0.03332994,-0.86235100
1314271604.74948239,-0.48629668,-0.03371284,-0.86131531
1314271604.80152512,-0.48498741,-0.03196305,-0.86178368
1314271604.84850502,-0.48371080,-0.03324272,-0.86090654
1314271604.89784169,-0.48461482,-0.03371787,-0.86254442
1314271604.94961524,-0.48547006,-0.03131644,-0.86300838
1314271605.00063753,-0.48499346,-0.03321663,-0.86203969
1314271605.04975963,-0.48427850,-0.03398442,-0.86146337
1314271605.10058689,-0.48723805,-0.03357783,-0.86123741
1314271605.14847398,-0.48572728,-0.03307259,-0.86300999
1314271605.20148730,-0.48482424,-0.03247179,-0.86137313
1314271605.24851370,-0.48383862,-0.02993162,-0.86491311
1314271605.30047822,-0.48502424,-0.03434000,-0.86269557
1314271605.34847522,-0.48618704,-0.03446230,-0.86183345
1314271605.40043759,-0.48489556,-0.03245815,-0.86256969
1314271605.44845819,-0.48644713,-0.03167650,-0.86359125
1314271605.50159860,-0.48546001,-0.03272293,-0.86074501
1314271605.54950070,-0.48471662,-0.03397370,-0.86201835
1314271605.60153174,-0.48620698,-0.03280298,-0.86423171
1314271605.64912844,-0.48594496,-0.03267890,-0.86435020
1314271605.69758248,-0.48660254,-0.03317682,-0.86411899
1314271605.74904728,-0.48759544,-0.03353384,-0.86496782
1314271605.80160069,-0.48656264,-0.03333427,-0.86120075
1314271605.84985304,-0.48565593,-0.03308623,-0.86181343
1314271605.90051055,-0.48661143,-0.03304964,-0.86425292
1314271605.94953537,-0.48622185,-0.03292561,-0.86449665
1314271606.00058675,-0.48564696,-0.03220964,-0.86155438
1314271606.04946923,-0.48493728,-0.03004183,-0.86523980
1314271606.09790277,-0.48564810,-0.03409152,-0.86180550
1314271606.14949203,-0.48454347,-0.03373151,-0.86134779
1314271606.19750333,-0.48504984,-0.03207658,-0.86284631
1314271606.24857783,-0.48647571,-0.03320106,-0.86199170
1314271606.30045271,-0.48454830,-0.03209943,-0.86122769
1314271606.34847975,-0.48578638,-0.03587041,-0.85981286
1314271606.40049148,-0.48424786,-0.03170740,-0.86293584
1314271606.44850397,-0.48431799,-0.03196929,-0.86187798
1314271606.49835372,-0.48584875,-0.03498017,-0.86075044
1314271606.54910421,-0.48443758,-0.03197077,-0.86161983
1314271606.59745955,-0.48641720,-0.03258488,-0.86093301
1314271606.65053797,-0.48661315,-0.03294819,-0.86200142
1314271606.70149851,-0.48452953,-0.03247944,-0.86095881
1314271606.74845886,-0.48622862,-0.03420340,-0.86250019
1314271606.79814863,-0.48624226,-0.03460156,-0.86051065
1314271606.84946990,-0.48637703,-0.03141461,-0.86464918
1314271606.89814186,-0.48501021,-0.03208416,-0.86218154
1314271606.94945693,-0.48659638,-0.03408065,-0.86185962
1314271606.99817300,-0.48602566,-0.03271217,-0.86117476
1314271607.04854703,-0.48690754,-0.03208664,-0.86003721
1314271607.09743786,-0.48636284,-0.03447738,-0.86025345
1314271607.15004921,-0.48623306,-0.03071364,-0.85987645
1314271607.20044279,-0.48444855,-0.03259605,-0.86188078
1314271607.24948192,-0.48443565,-0.03222210,-0.86161786
1314271607.30045605,-0.48567474,-0.03270622,-0.86208230
1314271607.34946108,-0.48588619,-0.03221260,-0.86103803
1314271607.40046191,-0.48454332,-0.03172396,-0.86109769
1314271607.44741988,-0.48646551,-0.03260000,-0.85947829
1314271607.49733043,-0.48503977,-0.03348307,-0.86058295
1314271607.54846621,-0.48564303,-0.03271228,-0.86155045
1314271607.60149503,-0.48546800,-0.03372519,-0.86100304
1314271607.64851046,-0.48636112,-0.03041386,-0.86425817
1314271607.69789195,-0.48481330,-0.03184652,-0.86111218
1314271607.74961877,-0.48677346,-0.03382020,-0.86253405
1314271607.80160451,-0.48580033,-0.03295751,-0.86195505
1314271607.84845734,-0.48529887,-0.03398412,-0.86046153
1314271607.90159702,-0.48480552,-0.03385558,-0.86122930
1314271607.94946933,-0.48458689,-0.03121374,-0.86176640
1314271608.00079799,-0.48574314,-0.03306956,-0.86327589
1314271608.04973006,-0.48400265,-0.03461583,-0.86144298
1314271608.09773898,-0.48458794,-0.03209185,-0.86189246
1314271608.14851665,-0.48631966,-0.03268031,-0.86384159
1314271608.20045280,-0.48602289,-0.03193551,-0.86330020
1314271608.24852204,-0.48705533,-0.03444237,-0.86281049
1314271608.30150986,-0.48726666,-0.03194120,-0.86151612
1314271608.34948254,-0.48609132,-0.03646382,-0.86274064
1314271608.40048695,-0.48518687,-0.03169845,-0.86306751
1314271608.44963789,-0.48689446,-0.03126335,-0.86674601
1314271608.49759960,-0.48641440,-0.03268697,-0.86339515
1314271608.54851699,-0.48632520,-0.03295503,-0.86193037
1314271608.60155535,-0.48817694,-0.03254109,-0.86349660
1314271608.65253949,-0.48636207,-0.03344939,-0.86238086
1314271608.70048499,-0.48549896,-0.03369491,-0.86378735
1314271608.74947476,-0.48589137,-0.03143442,-0.86329645
1314271608.80146956,-0.48616049,-0.03369018,-0.86356002
1314271608.84851551,-0.48532486,-0.03357838,-0.86311585
1314271608.89747572,-0.48421642,-0.03156359,-0.86465752
1314271608.94850469,-0.48461786,-0.03118347,-0.86455071
1314271609.00159168,-0.48567367,-0.03182811,-0.86195624
1314271609.04848623,-0.48631090,-0.03481503,-0.86395776
1314271609.10048461,-0.48448247,-0.03218879,-0.86466807
1314271609.14847612,-0.48685965,-0.03392920,-0.86399555
1314271609.20058537,-0.48532185,-0.03295159,-0.86298782
1314271609.24953222,-0.48468831,-0.02913807,-0.86774963
1314271609.30046153,-0.48648861,-0.03357502,-0.86225468
1314271609.34961009,-0.48553443,-0.03433985,-0.86219466
1314271609.40166378,-0.48636609,-0.03078933,-0.86438817
1314271609.45137691,-0.48618126,-0.03305884,-0.86383086
1314271609.50048447,-0.48603866,-0.03408990,-0.86156279
1314271609.54846835,-0.48541474,-0.03333460,-0.86232781
1314271609.60046434,-0.48691392,-0.03419412,-0.86267179
1314271609.64850640,-0.48565423,-0.03318768,-0.86406493
1314271609.69817162,-0.48497760,-0.03321966,-0.86177379
1314271609.74950027,-0.48568666,-0.03320583,-0.86234426
1314271609.80052352,-0.48635814,-0.03395204,-0.86237693
1314271609.84862566,-0.48652041,-0.03457273,-0.86291152
1314271609.90160155,-0.48400766,-0.03183011,-0.86345124
1314271609.94848228,-0.48671031,-0.03368245,-0.86372387
1314271610.00053334,-0.48727164,-0.03231667,-0.86164612
1314271610.04956198,-0.48539525,-0.03052921,-0.86618972
1314271610.09762406,-0.48630160,-0.03308453,-0.86132020
1314271610.14846778,-0.48634332,-0.03483318,-0.86223710
1314271610.20045257,-0.48531580,-0.03169801,-0.86273175
1314271610.24860787,-0.48649663,-0.03457728,-0.86251271
1314271610.30146527,-0.48640838,-0.03371583,-0.86092412
1314271610.34959626,-0.48695418,-0.03320698,-0.86095899
1314271610.40048337,-0.48501611,-0.03133019,-0.86218745
1314271610.44860077,-0.48475420,-0.03321367,-0.86255610
1314271610.49772120,-0.48523685,-0.03256707,-0.86378074
1314271610.54846168,-0.48633623,-0.03270149,-0.86185497
1314271610.60058832,-0.48553118,-0.03070174,-0.86169147
1314271610.64846873,-0.48590121,-0.03434277,-0.86155307
1314271610.70047188,-0.48588809,-0.03095750,-0.86091495
1314271610.74964046,-0.48463401,-0.03250816,-0.85818225
1314271610.79791999,-0.48614806,-0.03349031,-0.85879117
1314271610.84960890,-0.48554134,-0.03029903,-0.86407989
1314271610.89776254,-0.48602259,-0.03108161,-0.86092168
1314271610.94960880,-0.48490733,-0.03411141,-0.86070329
1314271611.00060248,-0.48623320,-0.03272119,-0.86012661
1314271611.04848194,-0.48754641,-0.03396834,-0.85966218
1314271611.10046625,-0.48555389,-0.03298027,-0.86008602
1314271611.14848995,-0.48684445,-0.03295266,-0.86135209
1314271611.19770861,-0.48477259,-0.03097598,-0.86032134
1314271611.24858618,-0.48502463,-0.03351031,-0.85806459
1314271611.30044460,-0.48731792,-0.03574430,-0.85831112
1314271611.34963512,-0.48585546,-0.03209300,-0.86050719
1314271611.40159416,-0.48496455,-0.03083816,-0.86126071
1314271611.44846153,-0.48494294,-0.03360270,-0.86123902
1314271611.50048161,-0.48649132,-0.03334790,-0.86000419
1314271611.54847670,-0.48712316,-0.03410169,-0.85937208
1314271611.60047579,-0.48689374,-0.03284212,-0.85989833
1314271611.64847207,-0.48447317,-0.03045829,-0.86203051
1314271611.69760585,-0.48619953,-0.03297858,-0.85959280
1314271611.74946570,-0.48650292,-0.03299362,-0.85788757
1314271611.80048108,-0.48522541,-0.03224154,-0.85901284
1314271611.84850693,-0.48597401,-0.03437755,-0.85824472
1314271611.89746070,-0.48500800,-0.03248535,-0.85992610
1314271611.94950461,-0.48649621,-0.03271960,-0.86000907
1314271612.00044203,-0.48419818,-0.03302075,-0.85796565
1314271612.04893780,-0.48565441,-0.03424090,-0.85989481
1314271612.10044765,-0.48496610,-0.03146530,-0.86159891
1314271612.14845729,-0.48527366,-0.03398963,-0.86027253
1314271612.20044827,-0.48648527,-0.03397717,-0.86020911
1314271612.25254536,-0.48657221,-0.03411040,-0.85941797
1314271612.29759693,-0.48734850,-0.03385635,-0.85859179
1314271612.34946871,-0.48570901,-0.03463047,-0.85836023
1314271612.40044546,-0.48672739,-0.03071653,-0.85910964
1314271612.44951844,-0.48575982,-0.03093333,-0.86329269
1314271612.49748731,-0.48731378,-0.03323562,-0.85793197
1314271612.54953098,-0.48731393,-0.03524317,-0.85818207
1314271612.58961511,-0.48583263,-0.03513307,-0.85823107
1314271612.65250063,-0.48577923,-0.03273494,-0.85930568
1314271612.70050621,-0.48602331,-0.03110582,-0.85866922
1314271612.74947309,-0.48760360,-0.03385628,-0.85834134
1314271612.78852677,-0.48678291,-0.03487088,-0.85828710
1314271612.84961152,-0.48561212,-0.03374633,-0.85889125
1314271612.90047717,-0.48677468,-0.03085731,-0.85765392
1314271612.94948888,-0.48524317,-0.03098341,-0.85915565
